When you browse on this site, cookies collect data to enhance your experience and personalize the content and advertising you see.
Visit our Privacy Policy to learn more. By continuing to use the site, you agree to this use of cookies and data.
  • In Hungary
  • List of Countries
  • For 7 days
  • Water Temperature
  • Weather Map
  • News
  • Weather Widgets
  • user-avatar
    Login

    Hourly Weather Vologino

    Today, 22 January, Wednesday

    Time Temperature Precipitation Wind Pressure Humidity
    00:00 -2°C° 0 mm 5 mps 739 mmHg 77%
    01:00 -2°C° 0 mm 5 mps 739 mmHg 79%
    02:00 -2°C° 0 mm 4 mps 739 mmHg 80%
    03:00 -2°C° 0 mm 4 mps 739 mmHg 80%
    04:00 -2°C° 0 mm 4 mps 738 mmHg 80%
    05:00 -2°C° 0 mm 5 mps 737 mmHg 80%
    06:00 -2°C° 0 mm 5 mps 737 mmHg 81%
    07:00 -2°C° 0 mm 5 mps 736 mmHg 82%
    08:00 -4°C° 0 mm 5 mps 736 mmHg 83%
    09:00 -2°C° 0.1 mm 5 mps 735 mmHg 83%
    10:00 -2°C° 0.1 mm 5 mps 735 mmHg 84%
    11:00 -1°C° 0.1 mm 5 mps 734 mmHg 85%
    12:00 -1°C° 0.5 mm 5 mps 734 mmHg 83%
    13:00 -1°C° 0.5 mm 4 mps 734 mmHg 81%
    14:00 -1°C° 0.5 mm 4 mps 734 mmHg 78%
    15:00 -2°C° 0.1 mm 4 mps 734 mmHg 79%
    16:00 -3°C° 0.1 mm 4 mps 735 mmHg 80%
    17:00 -4°C° 0.1 mm 4 mps 735 mmHg 80%
    18:00 -4°C° 0 mm 4 mps 736 mmHg 80%
    19:00 -4°C° 0 mm 4 mps 736 mmHg 80%
    20:00 -5°C° 0 mm 4 mps 737 mmHg 81%
    21:00 -6°C° 0 mm 5 mps 737 mmHg 81%
    22:00 -5°C° 0 mm 5 mps 737 mmHg 82%
    23:00 -5°C° 0 mm 6 mps 738 mmHg 82%

    Tomorrow, 23 January, Thursday

    Time Temperature Precipitation Wind Pressure Humidity
    00:00 -6°C° 0 mm 6 mps 738 mmHg 81%
    01:00 -6°C° 0 mm 6 mps 739 mmHg 80%
    02:00 -6°C° 0 mm 6 mps 740 mmHg 79%
    03:00 -8°C° 0 mm 6 mps 740 mmHg 76%
    04:00 -8°C° 0 mm 6 mps 741 mmHg 74%
    05:00 -9°C° 0 mm 6 mps 741 mmHg 71%
    06:00 -9°C° 0 mm 6 mps 742 mmHg 72%
    07:00 -9°C° 0 mm 6 mps 743 mmHg 72%
    08:00 -10°C° 0 mm 6 mps 744 mmHg 72%
    09:00 -9°C° 0 mm 6 mps 744 mmHg 69%
    10:00 -9°C° 0 mm 6 mps 744 mmHg 67%
    11:00 -7°C° 0 mm 5 mps 745 mmHg 65%
    12:00 -8°C° 0.1 mm 6 mps 745 mmHg 64%
    13:00 -8°C° 0.1 mm 6 mps 745 mmHg 63%
    14:00 -6°C° 0.1 mm 6 mps 745 mmHg 62%
    15:00 -6°C° 0 mm 6 mps 745 mmHg 64%
    16:00 -6°C° 0 mm 6 mps 745 mmHg 67%
    17:00 -8°C° 0 mm 6 mps 746 mmHg 69%
    18:00 -7°C° 0 mm 5 mps 746 mmHg 70%
    19:00 -7°C° 0 mm 4 mps 747 mmHg 71%
    20:00 -7°C° 0 mm 3 mps 747 mmHg 72%
    21:00 -7°C° 0 mm 3 mps 747 mmHg 74%
    22:00 -6°C° 0 mm 2 mps 747 mmHg 77%
    23:00 -7°C° 0 mm 2 mps 747 mmHg 79%

    Day after tomorrow, 24 January, Friday

    Time Temperature Precipitation Wind Pressure Humidity
    00:00 -6°C° 0 mm 2 mps 747 mmHg 81%
    01:00 -6°C° 0 mm 2 mps 747 mmHg 82%
    02:00 -6°C° 0 mm 2 mps 747 mmHg 84%
    03:00 -6°C° 0 mm 3 mps 746 mmHg 86%
    04:00 -7°C° 0 mm 4 mps 745 mmHg 89%
    05:00 -5°C° 0 mm 4 mps 744 mmHg 92%
    06:00 -6°C° 0.1 mm 5 mps 744 mmHg 91%
    07:00 -5°C° 0.1 mm 5 mps 743 mmHg 91%
    08:00 -5°C° 0.1 mm 5 mps 743 mmHg 90%
    09:00 -4°C° 0.3 mm 5 mps 742 mmHg 91%
    10:00 -4°C° 0.3 mm 6 mps 741 mmHg 92%
    11:00 -3°C° 0.3 mm 6 mps 740 mmHg 92%
    12:00 -2°C° 0.1 mm 5 mps 740 mmHg 92%
    13:00 -1°C° 0.1 mm 5 mps 739 mmHg 92%
    14:00 -1°C° 0.1 mm 4 mps 739 mmHg 92%
    15:00 0°C° 0.3 mm 5 mps 739 mmHg 93%
    16:00 0°C° 0.3 mm 5 mps 738 mmHg 95%
    17:00 +1°C° 0.3 mm 5 mps 738 mmHg 97%
    18:00 +1°C° 0.1 mm 4 mps 738 mmHg 96%
    19:00 0°C° 0.1 mm 4 mps 738 mmHg 95%
    20:00 +1°C° 0.1 mm 3 mps 739 mmHg 94%
    21:00 +1°C° 0 mm 3 mps 739 mmHg 94%
    22:00 0°C° 0 mm 3 mps 739 mmHg 94%
    23:00 0°C° 0 mm 3 mps 739 mmHg 95%

    25 January, Saturday

    Time Temperature Precipitation Wind Pressure Humidity
    00:00 0°C° 0 mm 3 mps 739 mmHg 94%
    01:00 0°C° 0 mm 3 mps 739 mmHg 94%
    02:00 0°C° 0 mm 3 mps 738 mmHg 94%
    03:00 0°C° 0 mm 3 mps 738 mmHg 95%
    04:00 0°C° 0 mm 3 mps 738 mmHg 96%
    05:00 0°C° 0 mm 3 mps 737 mmHg 97%
    06:00 0°C° 0.1 mm 3 mps 737 mmHg 96%
    07:00 0°C° 0.1 mm 3 mps 737 mmHg 96%
    08:00 0°C° 0.1 mm 3 mps 737 mmHg 95%
    09:00 0°C° 0.1 mm 4 mps 737 mmHg 92%
    10:00 0°C° 0.1 mm 4 mps 737 mmHg 88%
    11:00 0°C° 0.1 mm 5 mps 737 mmHg 85%
    12:00 0°C° 0 mm 5 mps 736 mmHg 82%
    13:00 0°C° 0 mm 5 mps 736 mmHg 78%
    14:00 -1°C° 0 mm 5 mps 736 mmHg 75%
    15:00 -2°C° 0 mm 6 mps 736 mmHg 77%
    16:00 -2°C° 0 mm 6 mps 735 mmHg 80%
    17:00 -3°C° 0 mm 7 mps 735 mmHg 82%
    18:00 -3°C° 0.2 mm 6 mps 736 mmHg 78%
    19:00 -4°C° 0.2 mm 6 mps 736 mmHg 74%
    20:00 -4°C° 0.2 mm 6 mps 737 mmHg 70%
    21:00 -4°C° 0 mm 6 mps 737 mmHg 72%
    22:00 -5°C° 0 mm 6 mps 738 mmHg 73%
    23:00 -5°C° 0 mm 6 mps 739 mmHg 75%

    26 January, Sunday

    Time Temperature Precipitation Wind Pressure Humidity
    00:00 -5°C° 0 mm 6 mps 740 mmHg 75%
    01:00 -5°C° 0 mm 6 mps 741 mmHg 75%
    02:00 -5°C° 0 mm 6 mps 741 mmHg 75%
    03:00 -5°C° 0 mm 6 mps 742 mmHg 75%
    04:00 -6°C° 0 mm 6 mps 743 mmHg 75%
    05:00 -6°C° 0 mm 5 mps 743 mmHg 75%
    06:00 -6°C° 0 mm 5 mps 744 mmHg 76%
    07:00 -6°C° 0 mm 5 mps 745 mmHg 77%
    08:00 -6°C° 0 mm 5 mps 746 mmHg 78%
    09:00 -5°C° 0 mm 5 mps 747 mmHg 77%
    10:00 -5°C° 0 mm 5 mps 748 mmHg 76%
    11:00 -5°C° 0 mm 5 mps 748 mmHg 75%
    12:00 -4°C° 0 mm 4 mps 749 mmHg 75%
    13:00 -4°C° 0 mm 4 mps 750 mmHg 75%
    14:00 -4°C° 0 mm 3 mps 750 mmHg 75%
    15:00 -3°C° 0 mm 2 mps 750 mmHg 79%
    16:00 -4°C° 0 mm 2 mps 751 mmHg 83%
    17:00 -2°C° 0 mm 1 mps 751 mmHg 86%
    18:00 -4°C° 0 mm 2 mps 751 mmHg 87%
    19:00 -4°C° 0 mm 2 mps 751 mmHg 87%
    20:00 -4°C° 0 mm 2 mps 752 mmHg 88%
    21:00 -4°C° 0 mm 2 mps 752 mmHg 87%
    22:00 -4°C° 0 mm 2 mps 752 mmHg 86%
    23:00 -4°C° 0 mm 2 mps 752 mmHg 86%

    27 January, Monday

    Time Temperature Precipitation Wind Pressure Humidity
    00:00 -4°C° 0 mm 3 mps 751 mmHg 85%
    01:00 -4°C° 0 mm 3 mps 751 mmHg 84%
    02:00 -4°C° 0 mm 3 mps 751 mmHg 83%
    03:00 -4°C° 0 mm 4 mps 750 mmHg 87%
    04:00 -3°C° 0 mm 4 mps 750 mmHg 90%
    05:00 -3°C° 0 mm 4 mps 749 mmHg 93%
    06:00 -3°C° 0.1 mm 4 mps 749 mmHg 94%
    07:00 -3°C° 0.1 mm 4 mps 749 mmHg 94%
    08:00 -2°C° 0.1 mm 5 mps 749 mmHg 95%
    09:00 -2°C° 0.2 mm 5 mps 749 mmHg 93%
    10:00 -2°C° 0.2 mm 5 mps 749 mmHg 91%
    11:00 -1°C° 0.2 mm 5 mps 749 mmHg 89%
    12:00 -1°C° 0 mm 5 mps 748 mmHg 88%
    13:00 -1°C° 0 mm 5 mps 748 mmHg 88%
    14:00 -1°C° 0 mm 5 mps 747 mmHg 87%
    15:00 -1°C° 0 mm 5 mps 747 mmHg 87%
    16:00 -2°C° 0 mm 5 mps 746 mmHg 87%
    17:00 -2°C° 0 mm 5 mps 746 mmHg 87%
    18:00 -2°C° 0 mm 5 mps 746 mmHg 88%
    19:00 -1°C° 0 mm 5 mps 745 mmHg 88%
    20:00 -1°C° 0 mm 5 mps 745 mmHg 88%
    21:00 -1°C° 0 mm 5 mps 745 mmHg 89%
    22:00 -1°C° 0 mm 5 mps 745 mmHg 91%
    23:00 -1°C° 0 mm 5 mps 745 mmHg 93%
    Show more